{"data":{"norad_id":69761,"epoch":"2026-09-19T23:30:51.327936Z","epoch_age_seconds":62786,"freshness":"FRESH","line1":"1 69761U 26150Y   26262.97976074  .00016166  00000+0  50189-3 0  9995","line2":"2 69761  97.2891 101.8825 0002317  90.4139 269.7369 15.33450290 13650","mean_motion":15.3345029,"eccentricity":0.0002317,"inclination_deg":97.2891,"raan_deg":101.8825,"arg_perigee_deg":90.4139,"mean_anomaly_deg":269.7369,"bstar":0.00050189,"rev_number":1365,"period_min":93.905880705138,"perigee_km":463.94175815557,"apogee_km":467.11311225485,"semimajor_km":6843.6644352052,"source":"CELESTRAK","updated_at":"2026-09-20T09:00:44.290666Z"}}